Regional Weather Roundup
Issued by NWS Upton, NY

Current Version | Previous Version | Graphics & Text | Print | Product List | Glossary Off
Versions: 1 2 3 4 5 6 7 8 9 10 11 12 13 14 15 16 17 18 19 20 21 22 23 24 25 26 27 28 29 30 31 32 33 34 35 36 37 38 39 40 41 42 43 44 45 46 47 48 49 50

000
ASUS41 KOKX 280508
RWROKX

REGIONAL WEATHER ROUNDUP
NATIONAL WEATHER SERVICE NEW YORK NY
100 AM EDT TUE APR 28 2015

NOTE: "FAIR" INDICATES FEW OR NO CLOUDS BELOW 12,000 FEET WITH NO
SIGNIFICANT WEATHER AND/OR OBSTRUCTIONS TO VISIBILITY.

NYZ071-072-176-178-NJZ106-104-280600-
NEW YORK CITY METRO AREA


CITY           SKY/WX    TMP DP  RH WIND       PRES   REMARKS
CENTRAL PARK   PTCLDY    52  35  52 VRB7      29.75S
LAGUARDIA APRT PTCLDY    52  37  56 NW16G22   29.72R
KENNEDY INTL   PTCLDY    53  35  50 NW15      29.72S
NEWARK/LIBERTY PTCLDY    52  37  56 NW13      29.73S
BRNX BOT. GARD   N/A     50  36  57 E2        29.73S
TETERBORO      PTCLDY    51  36  56 NW12      29.72S
$$

NYZ177-179-078>081-280600-
LONG ISLAND NEW YORK

CITY           SKY/WX    TMP DP  RH WIND       PRES   REMARKS
FARMINGDALE    PTCLDY    51  39  63 N14       29.70S
ISLIP          CLOUDY    50  40  68 NW15      29.67R
SHIRLEY        PTCLDY    50  39  66 NW13      29.68R
WESTHAMPTON    CLEAR     48  36  63 NW9       29.67R
MONTAUK POINT    N/A     50  39  66 NW12      29.64S
$$

NYZ052-065-067-280600-
HUDSON VALLEY

CITY           SKY/WX    TMP DP  RH WIND       PRES   REMARKS
WHITE PLAINS   DRIZZLE   48  39  71 NW15      29.70S
NEWBURGH       PTCLDY    48  41  76 NW12      29.74F
MONTGOMERY     CLOUDY    50  38  63 NW13G21   29.73F
POUGHKEEPSIE   CLOUDY    51  40  65 NW5       29.71F
ALBANY         MOCLDY    46  40  79 NW6       29.75F
$$

NJZ001-105-106-008-010-013-015-019>022-104-280600-
NEW JERSEY

CITY           SKY/WX    TMP DP  RH WIND       PRES   REMARKS
NEWARK/LIBERTY PTCLDY    52  37  56 NW13      29.73S
TETERBORO      PTCLDY    51  36  56 NW12      29.72S
CALDWELL       PTCLDY    50  36  58 NW8       29.74S
MORRISTOWN     PTCLDY    52  36  54 N7        29.75R
SOMERVILLE     MOCLDY    51  36  56 NW8       29.75R
SUSSEX         CLOUDY    49  37  63 VRB7      29.77S
ANDOVER          N/A     48  37  65 N8        29.76S
TRENTON        CLOUDY    51  34  52 NW8       29.77R
MILLVILLE      CLOUDY    50  34  54 NW9       29.79R
ATLANTIC CITY  CLOUDY    51  33  50 NW14      29.76S
WRIGHTSTOWN    CLOUDY    51  34  53 NW7       29.74S
TOMS RIVER     CLOUDY    52  34  50 NW10G16   29.75S
BELMAR         MOCLDY    52  32  46 NW13      29.73S
$$

PAZ047>061-062-071-280600-
EASTERN PENNSYLVANIA

CITY           SKY/WX    TMP DP  RH WIND       PRES   REMARKS
PHILADELPHIA   CLOUDY    53  34  48 NW14      29.80S
ALLENTOWN      CLOUDY    49  37  63 NW7       29.80S
SCRANTON       LGT RAIN  46  39  76 N6        29.83S
$$

CTZ002-004>006-009-010-012-RIZ004-006-007-MAZ004-011-015-280600-
SOUTHERN NEW ENGLAND
 IN CT

CITY           SKY/WX    TMP DP  RH WIND       PRES   REMARKS
BRADLEY INTL   PTCLDY    49  38  65 N8        29.67S
HARTFORD       MOCLDY    50  38  63 N8        29.67S
DANBURY        CLOUDY    48  39  71 NW12G18   29.71F
WTRBRY/OXFORD  CLOUDY    46  37  71 NW8       29.70R
BRIDGEPORT     LGT RAIN  50  42  74 NW10      29.69R
MERIDEN        CLOUDY    50  39  66 NW13      29.67F
NEW HAVEN      MOCLDY    50  40  68 NW10      29.68R
CHESTER        FAIR      48  39  71 N13G22    29.66S
GROTON         CLEAR     50  36  58 N17G24    29.63R
WILLIMANTIC    MOCLDY    49  35  58 N12       29.65S

 IN RI

CITY           SKY/WX    TMP DP  RH WIND       PRES   REMARKS
PROVIDENCE     LGT RAIN  45  41  86 NE15      29.64R
BLOCK ISLAND   MOCLDY    48  37  66 N10G16    29.62R
WESTERLY       PTCLDY    50  38  63 NW10      29.63S

 IN MA

CITY           SKY/WX    TMP DP  RH WIND       PRES   REMARKS
BOSTON         CLOUDY    46  42  86 N6        29.64R
WORCESTER      MOCLDY    45  34  65 N13       29.64R
WESTFIELD      CLEAR     49  36  61 N12       29.67F
PROVINCETOWN   CLOUDY   N/A N/A N/A NE16G24   29.61R
NANTUCKET      CLOUDY    44  38  79 N7        29.58S
$$

ANZ330-335-338-340-345-350-353-355-280600-
COASTAL MARINE OBSERVATIONS


STATION/POSITION TIME  SKY/WX   TEMP    WIND        PRES    VSBY  WAVE
                                AIR SEA DIR/SP/G                  HT/PER
                 (UTC)          (F)     (DEG/KT/KT) (MB)    (MI)  (FT/S)
NY HARB ENTRANCE 0450            50 47  320/ 10/ 14 1005.7          2/ 3
4S FIRE IS       0403               45                N/A           2/11
20S FIRE ISLAND  0450            48 44  330/ 14/ 16 1005.0          2/ 3
23SW MTP         0450            47 43  320/ 12/ 14 1003.0          2/ 9
HUDSON CANYON    NOT AVBL
EXECUTION ROCKS  NOT AVBL
WESTERN LI SOUND NOT AVBL
CENTRAL LI SOUND NOT AVBL
EASTERN LI SOUND 0400            50     340/ 14/ 19   N/A
ROBBINS REEF     0406            53     330/ 13/ 16 1005.5
$$


>>>>>>>>>>>>>>>>>>>>>>>>>>>> KEY <<<<<<<<<<<<<<<<<<<<<<<<<<<
>                                                          <
>     SKY/WX - SKY CONDITION/PRESENT WEATHER               <
>     TMP    - TEMPERATURE IN FAHRENHEIT                   <
>     DP     - DEWPOINT IN FAHRENHEIT                      <
>     RH     - RELATIVE HUMIDITY IN PERCENT                <
>     WIND   - DIRECTION AND SPEED IN MPH                  <
>     PRES   - MEAN SEA LEVEL PRESSURE IN INCHES OF HG     <
>     WCI    - WIND CHILL INDEX                            <
>     VSB    - VISIBILITY IN MILES                         <
>     HX     - HEAT INDEX                                  <
>     TC     - TEMPERATURE IN CELSIUS                      <
>     VRB    - VARIABLE WIND DIRECTION                     <
>                                                          <
>>>>>>>>>>>>>>>>>>>>>>>>>>>> KEY <<<<<<<<<<<<<<<<<<<<<<<<<<<




USA.gov is the U.S. government's official web portal to all federal, state and local government web resources and services.